User: anonymous
Location: Dover
(39.1580°N, 75.5250°W)
Time: 05:10:02
(UTC-04:00)
Language:

SeaSat 1 - Orbit

View from above orbital plane
View from above orbital plane
View from above satellite
View from above satellite

Ground track
Ground track

The orbit data is extracted from the following two-line orbital elements,

1 10967U 78064A   14243.81616412  .00000034  00000-0  50949-4 0  3678
2 10967 107.9897 328.9104 0002640 257.0693 211.4622 14.43064199899383
Epoch (UTC): 31 August 2014 19:35:16
Eccentricity: 0.0002640
inclination: 107.9897°
perigee height: 746 km
apogee height: 750 km
right ascension of ascending node: 328.9104°
argument of perigee: 257.0693°
revolutions per day: 14.43064199
mean anomaly at epoch: 211.4622°
orbit number at epoch: 89938

The dashed part of the orbit path shows where the satellite is in the earth's shadow,  

DLR